| time (UTC) | temp F | wind direction | speed knots | gust knots | rain 1hr in | rain 24hr in | rain mn in | humidity % | barometer mb |
| 20260502130525 | 45 | 356 | 0.9 | 1.7 | 0.00 | 0.00 | 0.00 | 68 | 1010.8 |
| 20260502123509 | 44 | 105 | 2.6 | 3.5 | 0.00 | 0.00 | 0.00 | 71 | 1010.9 |
| 20260502123005 | 44 | 21 | 1.7 | 1.7 | 0.00 | 0.00 | 0.00 | 72 | 1010.8 |
| 20260502122501 | 44 | 328 | 0.9 | 0.9 | 0.00 | 0.00 | 0.00 | 72 | 1010.5 |
| 20260502121959 | 44 | 10 | 0.9 | 0.9 | 0.00 | 0.00 | 0.00 | 73 | 1010.4 |
| 20260502121456 | 44 | 340 | 0.9 | 0.9 | 0.00 | 0.00 | 0.00 | 72 | 1010.8 |
| 20260502120954 | 43 | 5 | 0.0 | 0.0 | 0.00 | 0.00 | 0.00 | 74 | 1010.5 |
| 20260502120450 | 43 | 27 | 0.0 | 0.0 | 0.00 | 0.00 | 0.00 | 75 | 1010.8 |
| 20260502115444 | 42 | 35 | 1.7 | 3.5 | 0.00 | 0.00 | 0.00 | 73 | 1010.5 |
| 20260502114940 | 42 | 15 | 0.9 | 1.7 | 0.00 | 0.00 | 0.00 | 75 | 1010.8 |
| 20260502114437 | 42 | 33 | 0.9 | 1.7 | 0.00 | 0.00 | 0.00 | 75 | 1010.9 |
| 20260502113934 | 42 | 12 | 0.0 | 0.0 | 0.00 | 0.00 | 0.00 | 75 | 1010.8 |
| 20260502113432 | 42 | 2 | 0.0 | 0.0 | 0.00 | 0.00 | 0.00 | 75 | 1010.9 |
| 20260502112931 | 42 | 356 | 0.0 | 0.0 | 0.00 | 0.00 | 0.00 | 78 | 1010.8 |
| 20260502112427 | 42 | 6 | 0.0 | 0.0 | 0.00 | 0.00 | 0.00 | 78 | 1010.6 |
| 20260502111925 | 42 | 353 | 0.0 | 0.9 | 0.00 | 0.00 | 0.00 | 77 | 1010.8 |
| 20260502111422 | 42 | 349 | 0.0 | 0.9 | 0.00 | 0.00 | 0.00 | 76 | 1010.9 |
| 20260502110919 | 41 | 188 | 2.6 | 2.6 | 0.00 | 0.00 | 0.00 | 76 | 1010.9 |
| 20260502110417 | 41 | 356 | 0.0 | 0.0 | 0.00 | 0.00 | 0.00 | 77 | 1010.8 |
| 20260502105914 | 41 | 21 | 0.0 | 0.9 | 0.00 | 0.00 | 0.00 | 77 | 1010.8 |
| 20260502105411 | 41 | 351 | 0.9 | 0.9 | 0.00 | 0.00 | 0.00 | 78 | 1010.6 |
| 20260502104909 | 41 | 341 | 0.9 | 1.7 | 0.00 | 0.00 | 0.00 | 78 | 1010.9 |
| 20260502104406 | 41 | 18 | 0.9 | 1.7 | 0.00 | 0.00 | 0.00 | 78 | 1010.6 |
| 20260502103903 | 41 | 353 | 0.0 | 0.0 | 0.00 | 0.00 | 0.00 | 77 | 1010.5 |
| 20260502103401 | 42 | 288 | 1.7 | 1.7 | 0.00 | 0.00 | 0.00 | 75 | 1010.6 |
| 20260502102857 | 41 | 41 | 0.9 | 1.7 | 0.00 | 0.00 | 0.00 | 76 | 1011.0 |
| 20260502102354 | 41 | 355 | 0.9 | 0.9 | 0.00 | 0.00 | 0.00 | 77 | 1010.8 |
| 20260502101852 | 41 | 331 | 0.9 | 1.7 | 0.00 | 0.00 | 0.00 | 79 | 1010.4 |
| 20260502101350 | 41 | 354 | 0.0 | 0.0 | 0.00 | 0.00 | 0.00 | 77 | 1010.6 |
| 20260502100848 | 41 | 14 | 0.0 | 0.9 | 0.00 | 0.00 | 0.00 | 77 | 1010.5 |
| 20260502100347 | 41 | 7 | 1.7 | 1.7 | 0.00 | 0.00 | 0.00 | 78 | 1010.5 |
| 20260502091320 | 42 | 355 | 0.0 | 0.0 | 0.00 | 0.00 | 0.00 | 75 | 1010.5 |
| 20260502090818 | 42 | 354 | 0.0 | 0.9 | 0.00 | 0.00 | 0.00 | 75 | 1010.2 |
| 20260502090315 | 42 | 13 | 1.7 | 2.6 | 0.00 | 0.00 | 0.00 | 75 | 1010.6 |
| 20260502071210 | 44 | 1 | 1.7 | 1.7 | 0.00 | 0.00 | 0.00 | 76 | 1009.8 |
| 20260502070708 | 44 | 3 | 1.7 | 1.7 | 0.00 | 0.00 | 0.00 | 78 | 1009.8 |
| 20260502070206 | 44 | 355 | 0.9 | 0.9 | 0.00 | 0.00 | 0.00 | 77 | 1010.0 |
| 20260502065704 | 45 | 357 | 0.9 | 0.9 | 0.00 | 0.00 | 0.00 | 75 | 1009.8 |
| 20260502065201 | 45 | 338 | 0.9 | 1.7 | 0.00 | 0.00 | 0.00 | 75 | 1009.8 |
| 20260502064700 | 45 | 331 | 0.9 | 0.9 | 0.00 | 0.00 | 0.00 | 75 | 1009.5 |
| 20260502064156 | 45 | 325 | 0.9 | 1.7 | 0.00 | 0.00 | 0.00 | 75 | 1009.8 |
| 20260502063654 | 45 | 5 | 1.7 | 1.7 | 0.00 | 0.00 | 0.00 | 73 | 1009.7 |
| 20260502063152 | 45 | 339 | 2.6 | 3.5 | 0.00 | 0.00 | 0.00 | 74 | 1009.6 |
| 20260502062649 | 45 | 345 | 1.7 | 1.7 | 0.00 | 0.00 | 0.00 | 74 | 1009.4 |
| 20260502062146 | 46 | 253 | 1.7 | 5.2 | 0.00 | 0.00 | 0.00 | 73 | 1009.5 |
| 20260502061644 | 46 | 2 | 0.0 | 0.9 | 0.00 | 0.00 | 0.00 | 74 | 1009.5 |
| 20260502061142 | 46 | 302 | 0.9 | 1.7 | 0.00 | 0.00 | 0.00 | 73 | 1009.5 |
| 20260502060642 | 46 | 302 | 1.7 | 2.6 | 0.00 | 0.00 | 0.00 | 73 | 1009.6 |
| 20260502060139 | 46 | 337 | 2.6 | 3.5 | 0.00 | 0.00 | 0.00 | 72 | 1009.8 |
| 20260502055637 | 46 | 352 | 4.3 | 6.1 | 0.00 | 0.00 | 0.00 | 73 | 1009.8 |
| 20260502055134 | 46 | 347 | 1.7 | 1.7 | 0.00 | 0.00 | 0.00 | 74 | 1009.8 |
| 20260502054633 | 46 | 316 | 5.2 | 7.0 | 0.00 | 0.00 | 0.00 | 74 | 1009.8 |
| 20260502054130 | 47 | 3 | 0.0 | 0.9 | 0.00 | 0.00 | 0.00 | 74 | 1009.9 |
| 20260502053627 | 47 | 10 | 2.6 | 3.5 | 0.00 | 0.00 | 0.00 | 74 | 1009.7 |
| 20260502053125 | 47 | 331 | 0.9 | 0.9 | 0.00 | 0.00 | 0.00 | 74 | 1009.6 |
| 20260502052623 | 47 | 311 | 1.7 | 1.7 | 0.00 | 0.00 | 0.00 | 75 | 1009.6 |
| 20260502052121 | 47 | 332 | 1.7 | 2.6 | 0.00 | 0.00 | 0.00 | 75 | 1009.5 |
| 20260502051619 | 47 | 353 | 0.9 | 0.9 | 0.00 | 0.00 | 0.00 | 75 | 1009.4 |
| 20260502051117 | 47 | 333 | 1.7 | 1.7 | 0.00 | 0.00 | 0.00 | 75 | 1009.7 |
| 20260502050612 | 47 | 298 | 1.7 | 1.7 | 0.00 | 0.00 | 0.00 | 75 | 1009.4 |
| 20260502050109 | 48 | 328 | 1.7 | 1.7 | 0.00 | 0.00 | 0.00 | 75 | 1009.5 |
| 20260502045606 | 48 | 317 | 3.5 | 6.1 | 0.00 | 0.00 | 0.00 | 75 | 1009.3 |
| 20260502045103 | 48 | 310 | 1.7 | 2.6 | 0.00 | 0.00 | 0.00 | 75 | 1009.4 |
| 20260502044559 | 48 | 319 | 3.5 | 3.5 | 0.00 | 0.00 | 0.00 | 75 | 1009.5 |
| 20260502044056 | 48 | 313 | 2.6 | 2.6 | 0.00 | 0.00 | 0.00 | 76 | 1009.4 |
| 20260502043554 | 49 | 297 | 1.7 | 1.7 | 0.00 | 0.00 | 0.00 | 76 | 1009.4 |
| 20260502043050 | 49 | 333 | 0.9 | 1.7 | 0.00 | 0.00 | 0.00 | 75 | 1009.3 |
| 20260502042545 | 50 | 346 | 2.6 | 2.6 | 0.00 | 0.00 | 0.00 | 74 | 1009.4 |
| 20260502042043 | 50 | 267 | 1.7 | 1.7 | 0.00 | 0.00 | 0.00 | 73 | 1009.8 |
| 20260502041540 | 50 | 18 | 0.9 | 0.9 | 0.00 | 0.00 | 0.00 | 73 | 1009.5 |
| 20260502041037 | 50 | 308 | 3.5 | 5.2 | 0.00 | 0.00 | 0.00 | 71 | 1009.5 |
| 20260502040533 | 50 | 317 | 0.9 | 2.6 | 0.00 | 0.00 | 0.00 | 72 | 1009.5 |
| 20260502040031 | 50 | 359 | 1.7 | 1.7 | 0.00 | 0.00 | 0.00 | 71 | 1009.1 |
| 20260502035526 | 50 | 356 | 2.6 | 2.6 | 0.00 | 0.00 | 0.00 | 70 | 1009.0 |
| 20260502035024 | 50 | 358 | 0.9 | 0.9 | 0.00 | 0.00 | 0.00 | 70 | 1009.0 |
| 20260502034522 | 51 | 319 | 2.6 | 2.6 | 0.00 | 0.00 | 0.00 | 70 | 1009.1 |
| 20260502034021 | 51 | 303 | 1.7 | 1.7 | 0.00 | 0.00 | 0.00 | 69 | 1009.0 |
| 20260502033518 | 51 | 212 | 1.7 | 2.6 | 0.00 | 0.00 | 0.00 | 70 | 1009.3 |
| 20260502033015 | 51 | 339 | 0.0 | 0.9 | 0.00 | 0.00 | 0.00 | 69 | 1009.1 |
| 20260502032511 | 51 | 335 | 0.9 | 1.7 | 0.00 | 0.00 | 0.00 | 70 | 1009.0 |
| 20260502032008 | 51 | 301 | 1.7 | 1.7 | 0.00 | 0.00 | 0.00 | 69 | 1009.0 |
| 20260502031506 | 51 | 4 | 0.0 | 0.0 | 0.00 | 0.00 | 0.00 | 68 | 1009.0 |
| 20260502031004 | 51 | 5 | 0.0 | 0.0 | 0.00 | 0.00 | 0.00 | 68 | 1008.6 |
| 20260502030502 | 51 | 345 | 1.7 | 2.6 | 0.00 | 0.00 | 0.00 | 69 | 1008.5 |
| 20260502030000 | 51 | 342 | 1.7 | 2.6 | 0.00 | 0.00 | 0.00 | 68 | 1008.6 |
| 20260502025456 | 51 | 292 | 2.6 | 2.6 | 0.00 | 0.00 | 0.00 | 68 | 1008.6 |
| 20260502024954 | 51 | 330 | 1.7 | 1.7 | 0.00 | 0.00 | 0.00 | 69 | 1008.8 |
| 20260502024452 | 51 | 329 | 3.5 | 3.5 | 0.00 | 0.00 | 0.00 | 67 | 1009.0 |
| 20260502023950 | 51 | 254 | 2.6 | 2.6 | 0.00 | 0.00 | 0.00 | 67 | 1008.9 |
| 20260502023447 | 51 | 331 | 0.9 | 0.9 | 0.00 | 0.00 | 0.00 | 68 | 1009.0 |
| 20260502022945 | 51 | 253 | 2.6 | 3.5 | 0.00 | 0.00 | 0.00 | 69 | 1008.5 |
| 20260502022441 | 52 | 338 | 1.7 | 2.6 | 0.00 | 0.00 | 0.00 | 71 | 1008.6 |
| 20260502021938 | 52 | 22 | 2.6 | 2.6 | 0.00 | 0.00 | 0.00 | 70 | 1008.7 |
| 20260502021436 | 52 | 336 | 1.7 | 1.7 | 0.00 | 0.00 | 0.00 | 70 | 1008.8 |
| 20260502020932 | 52 | 333 | 2.6 | 3.5 | 0.00 | 0.00 | 0.00 | 69 | 1008.6 |
| 20260502020431 | 52 | 337 | 0.9 | 0.9 | 0.00 | 0.00 | 0.00 | 71 | 1009.2 |
| 20260502015926 | 52 | 305 | 1.7 | 2.6 | 0.00 | 0.00 | 0.00 | 70 | 1008.9 |
| 20260502015424 | 52 | 5 | 0.9 | 0.9 | 0.00 | 0.00 | 0.00 | 70 | 1008.9 |
| 20260502014915 | 52 | 335 | 0.9 | 0.9 | 0.00 | 0.00 | 0.00 | 70 | 1008.9 |
| 20260502014413 | 53 | 358 | 2.6 | 3.5 | 0.00 | 0.00 | 0.00 | 70 | 1008.4 |
| 20260502013909 | 53 | 346 | 0.0 | 0.0 | 0.00 | 0.00 | 0.00 | 68 | 1008.8 |
| 20260502013404 | 53 | 21 | 1.7 | 1.7 | 0.00 | 0.00 | 0.00 | 66 | 1008.9 |
| 20260502012901 | 53 | 3 | 0.9 | 0.9 | 0.00 | 0.00 | 0.00 | 67 | 1008.6 |
| 20260502012359 | 53 | 322 | 3.5 | 3.5 | 0.00 | 0.00 | 0.00 | 65 | 1008.6 |
| 20260502011856 | 54 | 335 | 0.9 | 1.7 | 0.00 | 0.00 | 0.00 | 65 | 1008.3 |
| 20260502011352 | 54 | 350 | 3.5 | 3.5 | 0.00 | 0.00 | 0.00 | 64 | 1008.1 |
| 20260502010849 | 54 | 41 | 2.6 | 3.5 | 0.00 | 0.00 | 0.00 | 62 | 1008.0 |
| 20260502010346 | 54 | 337 | 1.7 | 2.6 | 0.00 | 0.00 | 0.00 | 60 | 1007.6 |
| 20260502005843 | 54 | 353 | 1.7 | 1.7 | 0.00 | 0.00 | 0.00 | 61 | 1007.8 |
| 20260502005341 | 55 | 340 | 0.9 | 1.7 | 0.00 | 0.00 | 0.00 | 61 | 1007.5 |
| 20260502004838 | 55 | 308 | 2.6 | 2.6 | 0.00 | 0.00 | 0.00 | 60 | 1007.3 |
| 20260502004333 | 55 | 330 | 0.9 | 0.9 | 0.00 | 0.00 | 0.00 | 60 | 1007.3 |
| 20260502003832 | 56 | 329 | 0.9 | 0.9 | 0.00 | 0.00 | 0.00 | 60 | 1006.8 |
| 20260502003328 | 56 | 318 | 1.7 | 2.6 | 0.00 | 0.00 | 0.00 | 60 | 1006.6 |
| 20260502002825 | 56 | 358 | 0.9 | 1.7 | 0.00 | 0.00 | 0.00 | 65 | 1006.8 |
| 20260502002322 | 55 | 345 | 1.7 | 1.7 | 0.00 | 0.00 | 0.00 | 66 | 1006.6 |
| 20260502001819 | 55 | 357 | 0.0 | 0.0 | 0.00 | 0.00 | 0.00 | 66 | 1006.6 |
| 20260502001317 | 54 | 359 | 0.9 | 1.7 | 0.00 | 0.00 | 0.00 | 71 | 1006.2 |
| 20260502000815 | 53 | 332 | 1.7 | 1.7 | 0.00 | 0.00 | 0.00 | 84 | 1006.2 |
| 20260502000312 | 53 | 348 | 0.0 | 0.0 | 0.00 | 0.00 | 0.00 | 84 | 1005.9 |
| 20260501235807 | 54 | 273 | 1.7 | 1.7 | 0.00 | 0.00 | 0.00 | 83 | 1005.5 |
| 20260501235305 | 54 | 341 | 0.0 | 0.0 | 0.00 | 0.00 | 0.00 | 82 | 1006.0 |
| 20260501234759 | 54 | 7 | 0.0 | 0.0 | 0.00 | 0.00 | 0.00 | 79 | 1005.9 |
| 20260501234256 | 54 | 3 | 0.0 | 0.0 | 0.00 | 0.00 | 0.00 | 82 | 1005.7 |
| 20260501233755 | 54 | 4 | 0.0 | 0.0 | 0.00 | 0.00 | 0.00 | 84 | 1005.4 |
| 20260501233252 | 54 | 358 | 0.0 | 0.0 | 0.00 | 0.00 | 0.00 | 83 | 1005.2 |
| 20260501232748 | 55 | 356 | 0.0 | 0.0 | 0.00 | 0.00 | 0.00 | 82 | 1005.5 |
| 20260501232245 | 55 | 359 | 0.0 | 0.0 | 0.00 | 0.00 | 0.00 | 78 | 1005.3 |
| 20260501231743 | 55 | 9 | 0.0 | 0.0 | 0.00 | 0.00 | 0.00 | 83 | 1005.3 |
| 20260501231241 | 55 | 2 | 0.0 | 0.9 | 0.00 | 0.00 | 0.00 | 80 | 1005.6 |
| 20260501230739 | 55 | 14 | 0.0 | 0.0 | 0.00 | 0.00 | 0.00 | 81 | 1005.6 |
| 20260501230237 | 55 | 346 | 0.0 | 0.0 | 0.00 | 0.00 | 0.00 | 80 | 1005.5 |
| 20260501225735 | 55 | 29 | 0.9 | 0.9 | 0.00 | 0.00 | 0.00 | 82 | 1005.5 |
| 20260501225232 | 56 | 13 | 0.9 | 0.9 | 0.00 | 0.00 | 0.00 | 79 | 1005.5 |
| 20260501224728 | 56 | 11 | 0.9 | 0.9 | 0.00 | 0.00 | 0.00 | 66 | 1005.6 |
| 20260501224226 | 56 | 340 | 0.0 | 0.9 | 0.00 | 0.00 | 0.00 | 71 | 1006.1 |
| 20260501223721 | 57 | 352 | 0.0 | 0.9 | 0.00 | 0.00 | 0.00 | 64 | 1005.9 |
| 20260501223218 | 59 | 357 | 1.7 | 1.7 | 0.00 | 0.00 | 0.00 | 57 | 1005.8 |
| 20260501222714 | 59 | 355 | 1.7 | 2.6 | 0.00 | 0.00 | 0.00 | 52 | 1005.8 |
| 20260501222211 | 60 | 356 | 0.0 | 0.0 | 0.00 | 0.00 | 0.00 | 64 | 1005.3 |
| 20260501221707 | 61 | 357 | 0.0 | 0.0 | 0.00 | 0.00 | 0.00 | 55 | 1005.2 |
| 20260501221205 | 61 | 357 | 0.0 | 0.0 | 0.00 | 0.00 | 0.00 | 49 | 1005.3 |
| 20260501220703 | 61 | 4 | 0.0 | 0.0 | 0.00 | 0.00 | 0.00 | 50 | 1005.1 |
| 20260501220200 | 61 | 5 | 0.0 | 0.0 | 0.00 | 0.00 | 0.00 | 48 | 1005.1 |
| 20260501215657 | 62 | 354 | 0.9 | 0.9 | 0.00 | 0.00 | 0.00 | 45 | 1005.4 |
| 20260501215152 | 62 | 358 | 0.0 | 0.0 | 0.00 | 0.00 | 0.00 | 47 | 1005.3 |
| 20260501214647 | 62 | 353 | 0.0 | 0.0 | 0.00 | 0.00 | 0.00 | 47 | 1005.2 |
| 20260501214143 | 62 | 342 | 0.9 | 0.9 | 0.00 | 0.00 | 0.00 | 44 | 1005.3 |
| 20260501213640 | 63 | 313 | 1.7 | 1.7 | 0.00 | 0.00 | 0.00 | 43 | 1005.3 |
| 20260501213135 | 63 | 319 | 1.7 | 2.6 | 0.00 | 0.00 | 0.00 | 43 | 1005.1 |
| 20260501212632 | 63 | 331 | 0.0 | 0.9 | 0.00 | 0.00 | 0.00 | 45 | 1005.4 |
| 20260501212129 | 63 | 171 | 0.9 | 2.6 | 0.00 | 0.00 | 0.00 | 44 | 1005.4 |
| 20260501211626 | 62 | 356 | 0.0 | 0.0 | 0.00 | 0.00 | 0.00 | 44 | 1005.3 |
| 20260501211124 | 62 | 355 | 0.0 | 0.0 | 0.00 | 0.00 | 0.00 | 47 | 1005.4 |
| 20260501210620 | 62 | 342 | 0.0 | 0.0 | 0.00 | 0.00 | 0.00 | 46 | 1005.5 |
| 20260501210116 | 62 | 321 | 1.7 | 1.7 | 0.00 | 0.00 | 0.00 | 42 | 1005.1 |
| 20260501205613 | 62 | 339 | 0.9 | 0.9 | 0.00 | 0.00 | 0.00 | 43 | 1005.1 |
| 20260501205111 | 62 | 8 | 0.0 | 0.0 | 0.00 | 0.00 | 0.00 | 43 | 1005.2 |
| 20260501204607 | 62 | 347 | 0.0 | 0.9 | 0.00 | 0.00 | 0.00 | 45 | 1005.2 |
| 20260501204103 | 63 | 326 | 1.7 | 1.7 | 0.00 | 0.00 | 0.00 | 43 | 1005.2 |
| 20260501203559 | 63 | 101 | 0.9 | 2.6 | 0.00 | 0.00 | 0.00 | 41 | 1005.3 |
| 20260501203057 | 63 | 220 | 1.7 | 2.6 | 0.00 | 0.00 | 0.00 | 43 | 1005.2 |
| 20260501202554 | 64 | 260 | 1.7 | 1.7 | 0.00 | 0.00 | 0.00 | 40 | 1005.1 |
| 20260501202050 | 64 | 359 | 0.0 | 0.0 | 0.00 | 0.00 | 0.00 | 40 | 1005.2 |
| 20260501201548 | 65 | 349 | 0.0 | 0.0 | 0.00 | 0.00 | 0.00 | 37 | 1005.3 |
| 20260501201044 | 65 | 323 | 2.6 | 2.6 | 0.00 | 0.00 | 0.00 | 40 | 1005.2 |
| 20260501200541 | 63 | 342 | 1.7 | 1.7 | 0.00 | 0.00 | 0.00 | 40 | 1005.7 |
| 20260501200038 | 63 | 264 | 3.5 | 3.5 | 0.00 | 0.00 | 0.00 | 40 | 1005.5 |
| 20260501195536 | 63 | 339 | 0.9 | 0.9 | 0.00 | 0.00 | 0.00 | 40 | 1005.5 |
| 20260501195031 | 64 | 353 | 1.7 | 2.6 | 0.00 | 0.00 | 0.00 | 39 | 1005.5 |
| 20260501194527 | 65 | 305 | 1.7 | 1.7 | 0.00 | 0.00 | 0.00 | 39 | 1005.4 |
| 20260501194023 | 65 | 315 | 0.9 | 0.9 | 0.00 | 0.00 | 0.00 | 39 | 1005.5 |
| 20260501193521 | 65 | 289 | 0.9 | 0.9 | 0.00 | 0.00 | 0.00 | 37 | 1005.6 |
| 20260501193019 | 66 | 44 | 0.9 | 0.9 | 0.00 | 0.00 | 0.00 | 40 | 1005.6 |
| 20260501192515 | 67 | 310 | 1.7 | 3.5 | 0.00 | 0.00 | 0.00 | 38 | 1005.7 |
| 20260501192014 | 67 | 190 | 1.7 | 2.6 | 0.00 | 0.00 | 0.00 | 44 | 1005.6 |
| 20260501191510 | 66 | 320 | 0.9 | 0.9 | 0.00 | 0.00 | 0.00 | 35 | 1005.9 |
| 20260501191008 | 66 | 26 | 1.7 | 1.7 | 0.00 | 0.00 | 0.00 | 35 | 1005.8 |
| 20260501190502 | 65 | 287 | 4.3 | 5.2 | 0.00 | 0.00 | 0.00 | 37 | 1006.0 |
| 20260501185958 | 65 | 127 | 3.5 | 5.2 | 0.00 | 0.00 | 0.00 | 34 | 1006.0 |
| 20260501185454 | 65 | 291 | 0.9 | 1.7 | 0.00 | 0.00 | 0.00 | 39 | 1006.4 |
| 20260501184951 | 64 | 297 | 0.9 | 0.9 | 0.00 | 0.00 | 0.00 | 38 | 1006.1 |
| 20260501184447 | 65 | 41 | 1.7 | 2.6 | 0.00 | 0.00 | 0.00 | 36 | 1006.4 |
| 20260501183942 | 66 | 353 | 0.0 | 0.9 | 0.00 | 0.00 | 0.00 | 38 | 1006.4 |
| 20260501183439 | 66 | 345 | 0.9 | 0.9 | 0.00 | 0.00 | 0.00 | 38 | 1006.6 |
| 20260501182936 | 66 | 19 | 0.9 | 0.9 | 0.00 | 0.00 | 0.00 | 38 | 1006.4 |
| 20260501182433 | 65 | 1 | 0.9 | 0.9 | 0.00 | 0.00 | 0.00 | 34 | 1006.5 |
| 20260501181929 | 65 | 351 | 1.7 | 1.7 | 0.00 | 0.00 | 0.00 | 37 | 1006.5 |
| 20260501181426 | 64 | 350 | 0.9 | 0.9 | 0.00 | 0.00 | 0.00 | 40 | 1006.7 |
| 20260501180923 | 64 | 269 | 1.7 | 1.7 | 0.00 | 0.00 | 0.00 | 42 | 1006.8 |
| 20260501180420 | 64 | 229 | 2.6 | 3.5 | 0.00 | 0.00 | 0.00 | 38 | 1007.0 |
| 20260501175917 | 64 | 335 | 0.0 | 0.9 | 0.00 | 0.00 | 0.00 | 39 | 1006.9 |
| 20260501175414 | 64 | 349 | 1.7 | 2.6 | 0.00 | 0.00 | 0.00 | 41 | 1007.2 |
| 20260501174910 | 63 | 299 | 2.6 | 2.6 | 0.00 | 0.00 | 0.00 | 36 | 1007.0 |
| 20260501174408 | 63 | 232 | 1.7 | 1.7 | 0.00 | 0.00 | 0.00 | 40 | 1007.4 |
| 20260501173906 | 63 | 312 | 3.5 | 3.5 | 0.00 | 0.00 | 0.00 | 39 | 1007.4 |
| 20260501173403 | 63 | 358 | 1.7 | 2.6 | 0.00 | 0.00 | 0.00 | 36 | 1007.5 |
| 20260501172858 | 62 | 295 | 1.7 | 2.6 | 0.00 | 0.00 | 0.00 | 39 | 1007.8 |
| 20260501172354 | 61 | 313 | 0.9 | 1.7 | 0.00 | 0.00 | 0.00 | 47 | 1007.6 |
| 20260501171849 | 61 | 354 | 1.7 | 1.7 | 0.00 | 0.00 | 0.00 | 41 | 1007.8 |
| 20260501171347 | 61 | 224 | 4.3 | 5.2 | 0.00 | 0.00 | 0.00 | 42 | 1007.8 |
| 20260501170843 | 62 | 314 | 1.7 | 1.7 | 0.00 | 0.00 | 0.00 | 40 | 1007.8 |
| 20260501170340 | 63 | 125 | 0.9 | 1.7 | 0.00 | 0.00 | 0.00 | 42 | 1008.0 |
| 20260501165838 | 62 | 198 | 1.7 | 1.7 | 0.00 | 0.00 | 0.00 | 41 | 1008.2 |
| 20260501165335 | 62 | 232 | 4.3 | 7.8 | 0.00 | 0.00 | 0.00 | 42 | 1007.6 |
| 20260501164833 | 62 | 222 | 1.7 | 1.7 | 0.00 | 0.00 | 0.00 | 44 | 1008.0 |
| 20260501164331 | 62 | 298 | 0.0 | 0.9 | 0.00 | 0.00 | 0.00 | 43 | 1008.1 |
| 20260501163826 | 62 | 23 | 1.7 | 2.6 | 0.00 | 0.00 | 0.00 | 45 | 1008.2 |
| 20260501163323 | 61 | 144 | 0.9 | 2.6 | 0.00 | 0.00 | 0.00 | 43 | 1008.2 |
| 20260501162820 | 60 | 16 | 0.0 | 0.0 | 0.00 | 0.00 | 0.00 | 44 | 1008.4 |
| 20260501162317 | 59 | 331 | 2.6 | 2.6 | 0.00 | 0.00 | 0.00 | 47 | 1008.5 |
| 20260501161814 | 61 | 343 | 0.0 | 0.9 | 0.00 | 0.00 | 0.00 | 49 | 1008.5 |
| 20260501161310 | 59 | 14 | 1.7 | 1.7 | 0.00 | 0.00 | 0.00 | 47 | 1008.6 |
| 20260501160807 | 60 | 358 | 0.0 | 0.0 | 0.00 | 0.00 | 0.00 | 48 | 1008.5 |
| 20260501160303 | 59 | 341 | 0.0 | 0.9 | 0.00 | 0.00 | 0.00 | 50 | 1008.8 |
| 20260501155801 | 59 | 312 | 2.6 | 2.6 | 0.00 | 0.00 | 0.00 | 47 | 1008.6 |
| 20260501155258 | 60 | 208 | 0.9 | 1.7 | 0.00 | 0.00 | 0.00 | 51 | 1008.7 |
| 20260501154754 | 60 | 337 | 1.7 | 1.7 | 0.00 | 0.00 | 0.00 | 47 | 1008.7 |
| 20260501154252 | 60 | 349 | 0.0 | 0.9 | 0.00 | 0.00 | 0.00 | 53 | 1008.8 |
| 20260501153749 | 60 | 341 | 1.7 | 2.6 | 0.00 | 0.00 | 0.00 | 50 | 1008.9 |
| 20260501153247 | 58 | 64 | 1.7 | 2.6 | 0.00 | 0.00 | 0.00 | 49 | 1008.7 |
| 20260501152743 | 59 | 40 | 1.7 | 2.6 | 0.00 | 0.00 | 0.00 | 48 | 1008.9 |
| 20260501152240 | 58 | 74 | 4.3 | 6.1 | 0.00 | 0.00 | 0.00 | 50 | 1008.9 |
| 20260501151737 | 59 | 359 | 0.9 | 0.9 | 0.00 | 0.00 | 0.00 | 48 | 1009.0 |
| 20260501151233 | 57 | 2 | 0.0 | 0.0 | 0.00 | 0.00 | 0.00 | 45 | 1009.1 |
| 20260501150730 | 57 | 20 | 2.6 | 3.5 | 0.00 | 0.00 | 0.00 | 48 | 1009.2 |
| 20260501150226 | 57 | 113 | 2.6 | 3.5 | 0.00 | 0.00 | 0.00 | 47 | 1009.6 |
| 20260501145722 | 56 | 335 | 0.0 | 0.9 | 0.00 | 0.00 | 0.00 | 48 | 1009.6 |